Location: Lecco
(45.8566°N, 9.3977°E)
Time: 12:00:53
(UTC+02:00)

ISS - Pass Details

Date: 17 July 2018
Orbit: 402 x 408 km, 51.6° (Epoch: 21 July)

Event Time Altitude Azimuth Distance (km) Brightness Sun altitude
Rises 04:50:11 0° 298° (WNW) 2,333 -0.2 -8.9°
Reaches altitude 10° 04:52:17 10° 302° (WNW) 1,472 -1.1 -8.6°
Maximum altitude 04:55:33 59° 23° (NNE) 477 -3.1 -8.2°
Drops below altitude 10° 04:58:49 10° 104° (ESE) 1,468 -0.5 -7.8°
Sets 05:00:55 0° 108° (ESE) 2,327 0.5 -7.5°
